KQ4NAL Weather Reports


Display with metric or nautical units.
time (UTC)temp
F
wind
direction
speed
MPH
gust
MPH
rain 1hr
in
rain 24hr
in
rain mn
in
humidity
%
barometer
mb
20260906100726 70 355 3.0 3.0 0.00 0.00 0.00 99 1014.9
20260906100226 70 5 2.0 2.0 0.00 0.00 0.00 99 1014.8
20260906095721 70 346 2.0 2.0 0.00 0.00 0.00 99 1015.1
20260906095216 70 355 2.0 2.0 0.00 0.00 0.00 99 1015.0
20260906094715 70 16 2.0 2.0 0.00 0.00 0.00 99 1014.9
20260906094210 70 356 1.0 1.0 0.00 0.00 0.00 99 1014.9
20260906093707 70 1 1.0 2.0 0.00 0.00 0.00 99 1014.8
20260906093201 70 322 1.0 1.0 0.00 0.00 0.00 99 1014.7
20260906092657 70 348 2.0 2.0 0.00 0.00 0.00 99 1014.8
20260906092156 70 357 1.0 2.0 0.00 0.00 0.00 99 1014.6
20260906091652 70 355 0.0 0.0 0.00 0.00 0.00 99 1014.7
20260906091149 70 341 1.0 1.0 0.00 0.00 0.00 99 1014.6
20260906090645 70 346 0.0 0.0 0.00 0.00 0.00 99 1014.6
20260906090144 70 345 0.0 1.0 0.00 0.00 0.00 99 1014.5
20260906085642 70 348 0.0 0.0 0.00 0.00 0.00 99 1014.4
20260906085137 70 10 2.0 2.0 0.00 0.00 0.00 99 1014.5
20260906084632 70 9 1.0 2.0 0.00 0.00 0.00 99 1014.4
20260906084131 70 352 0.0 0.0 0.00 0.00 0.00 99 1014.3
20260906083626 70 347 0.0 0.0 0.00 0.00 0.00 99 1014.7
20260906083121 70 345 1.0 2.0 0.00 0.00 0.00 99 1014.5
20260906082617 70 340 1.0 1.0 0.00 0.00 0.00 99 1014.3
20260906082112 70 11 4.0 6.0 0.00 0.00 0.00 99 1014.5
20260906081608 70 358 0.0 2.0 0.00 0.00 0.00 99 1014.2
20260906081103 70 335 0.0 1.0 0.00 0.00 0.00 99 1014.4
20260906080559 70 337 1.0 1.0 0.00 0.00 0.00 99 1014.3
20260906080055 70 340 0.0 0.0 0.00 0.00 0.00 99 1014.3
20260906075549 70 347 0.0 0.0 0.00 0.00 0.00 99 1014.3
20260906075044 70 359 3.0 3.0 0.00 0.00 0.00 99 1014.2
20260906074539 70 356 1.0 2.0 0.00 0.00 0.00 99 1014.2
20260906074037 70 0 1.0 2.0 0.00 0.00 0.00 99 1014.1
20260906073533 70 334 0.0 0.0 0.00 0.00 0.00 99 1014.2
20260906073029 70 5 1.0 2.0 0.00 0.00 0.00 99 1014.5
20260906072529 70 347 3.0 3.0 0.00 0.00 0.00 99 1014.3
20260906072025 70 344 0.0 1.0 0.00 0.00 0.00 99 1014.2
20260906071521 70 342 2.0 2.0 0.00 0.00 0.00 99 1014.4
20260906071016 70 344 0.0 0.0 0.00 0.00 0.00 99 1014.4
20260906070512 70 347 0.0 0.0 0.00 0.00 0.00 99 1014.2
20260906070008 70 344 0.0 0.0 0.00 0.00 0.00 99 1014.4
20260906065507 70 349 0.0 0.0 0.00 0.00 0.00 99 1014.5
20260906065003 70 348 0.0 0.0 0.00 0.00 0.00 99 1014.4
20260906064459 70 351 0.0 0.0 0.00 0.00 0.00 99 1014.6
20260906063954 70 348 0.0 0.0 0.00 0.00 0.00 99 1014.4
20260906063449 70 342 0.0 0.0 0.00 0.00 0.00 99 1014.5
20260906062944 70 344 0.0 0.0 0.00 0.00 0.00 99 1014.5
20260906062439 70 354 0.0 0.0 0.00 0.00 0.00 99 1014.5
20260906061933 70 346 0.0 0.0 0.00 0.00 0.00 99 1014.7
20260906061430 69 355 0.0 0.0 0.00 0.00 0.00 99 1014.5
20260906060924 70 344 0.0 0.0 0.00 0.00 0.00 99 1014.7
20260906060421 70 344 0.0 0.0 0.00 0.00 0.00 99 1014.4
20260906055917 70 344 0.0 0.0 0.00 0.00 0.00 99 1014.6
20260906055413 70 351 2.0 2.0 0.00 0.00 0.00 99 1014.6
20260906054908 70 359 1.0 2.0 0.00 0.00 0.00 99 1014.7
20260906054403 69 359 2.0 2.0 0.00 0.00 0.00 99 1014.7
20260906053859 69 351 1.0 2.0 0.00 0.00 0.00 99 1014.6
20260906053355 69 349 1.0 1.0 0.00 0.00 0.00 99 1014.7
20260906052850 69 352 0.0 1.0 0.00 0.00 0.00 99 1014.6
20260906052347 69 358 1.0 1.0 0.00 0.00 0.00 99 1014.5
20260906051843 69 344 0.0 0.0 0.00 0.00 0.00 99 1014.6
20260906051343 69 343 0.0 0.0 0.00 0.00 0.00 99 1014.7
20260906050839 69 343 0.0 0.0 0.00 0.00 0.00 99 1014.6
20260906050333 69 344 0.0 0.0 0.00 0.00 0.00 99 1014.8
20260906045832 69 344 0.0 0.0 0.00 0.00 0.00 99 1014.4
20260906045327 69 344 0.0 0.0 0.00 0.00 0.00 99 1014.3
20260906044823 69 344 0.0 0.0 0.00 0.00 0.00 99 1014.5
20260906044323 69 344 0.0 0.0 0.00 0.00 0.00 99 1014.2
20260906043819 69 345 0.0 0.0 0.00 0.00 0.00 99 1014.1
20260906043314 69 345 0.0 0.0 0.00 0.00 0.00 99 1014.1
20260906042809 69 345 0.0 0.0 0.00 0.00 0.00 99 1014.0
20260906042308 69 345 0.0 0.0 0.00 0.00 0.00 99 1014.3
20260906041803 69 346 0.0 0.0 0.00 0.00 0.00 99 1013.8
20260906041253 69 342 0.0 0.0 0.00 0.00 0.00 99 1013.9
20260906040748 69 339 0.0 0.0 0.00 0.00 0.00 99 1014.0
20260906040244 69 344 0.0 0.0 0.00 0.00 0.00 99 1014.2
20260906035739 69 343 0.0 0.0 0.00 0.06 0.06 99 1014.0
20260906035234 69 344 0.0 0.0 0.00 0.06 0.06 99 1014.0
20260906034734 70 344 0.0 0.0 0.00 0.06 0.06 99 1014.0
20260906034228 69 344 0.0 0.0 0.00 0.06 0.06 99 1013.9
20260906033719 70 344 0.0 0.0 0.00 0.06 0.06 99 1013.9
20260906033219 70 344 0.0 0.0 0.00 0.06 0.06 99 1013.9
20260906032716 70 344 0.0 0.0 0.00 0.06 0.06 99 1014.0
20260906032215 70 341 0.0 0.0 0.00 0.06 0.06 99 1013.8
20260906031711 70 344 0.0 0.0 0.00 0.06 0.06 99 1013.8
20260906031206 70 348 0.0 0.0 0.00 0.06 0.06 99 1013.7
20260906030705 70 345 0.0 0.0 0.00 0.06 0.06 99 1013.7
20260906030201 70 347 0.0 0.0 0.00 0.06 0.06 99 1013.7
20260906025659 70 347 0.0 0.0 0.00 0.06 0.06 99 1013.7
20260906025154 70 347 0.0 0.0 0.00 0.06 0.06 99 1013.9
20260906024649 70 340 0.0 0.0 0.00 0.06 0.06 99 1013.9
20260906024148 70 345 0.0 0.0 0.00 0.06 0.06 99 1013.9
20260906023644 71 347 0.0 0.0 0.00 0.06 0.06 99 1013.6
20260906023144 71 349 0.0 0.0 0.00 0.06 0.06 99 1013.6
20260906022639 71 1 0.0 0.0 0.00 0.06 0.06 99 1013.7
20260906022135 71 355 0.0 0.0 0.00 0.06 0.06 99 1013.8
20260906021631 71 337 0.0 0.0 0.00 0.06 0.06 99 1013.9
20260906021128 71 342 0.0 0.0 0.00 0.06 0.06 99 1014.1
20260906020623 71 348 0.0 0.0 0.00 0.06 0.06 99 1014.0
20260906020118 71 344 0.0 0.0 0.05 0.06 0.06 99 1014.2
20260906015613 71 346 0.0 0.0 0.05 0.06 0.06 99 1014.2
20260906015111 71 345 0.0 0.0 0.00 0.05 0.05 99 1014.1
20260906014606 71 0 0.0 1.0 0.00 0.05 0.05 99 1013.9
20260906014103 72 353 1.0 2.0 0.00 0.05 0.05 99 1014.3
20260906013558 72 349 0.0 0.0 0.00 0.05 0.05 99 1014.1
20260906013053 72 8 4.0 5.0 0.00 0.05 0.05 99 1014.0
20260906012548 72 357 0.0 1.0 0.00 0.05 0.05 99 1013.9
20260906012047 72 339 1.0 2.0 0.00 0.05 0.05 99 1014.2
20260906011544 72 7 0.0 0.0 0.00 0.05 0.05 99 1014.3
20260906011043 72 302 0.0 0.0 0.07 0.05 0.05 99 1014.1
20260906010539 72 347 0.0 0.0 0.07 0.05 0.05 99 1013.7
20260906010035 72 345 0.0 0.0 0.00 0.04 0.04 98 1013.4
20260906005534 72 311 0.0 0.0 0.00 0.04 0.04 98 1013.5
20260906005033 73 341 0.0 0.0 0.00 0.04 0.04 97 1013.5
20260906004533 73 347 0.0 0.0 0.00 0.04 0.04 97 1013.6
20260906004028 73 2 1.0 2.0 0.12 0.04 0.04 96 1013.4
20260906003523 73 342 0.0 1.0 0.17 0.04 0.04 95 1013.6
20260906003019 74 11 3.0 3.0 0.12 0.02 0.02 93 1013.9
20260906002513 74 355 3.0 3.0 0.07 0.01 0.01 92 1013.5
20260906002008 75 10 7.0 9.0 0.00 0.00 0.00 90 1013.5
20260906001504 76 23 3.0 3.0 0.00 0.00 0.00 88 1013.4
20260906000958 77 12 4.0 7.0 0.00 0.00 0.00 87 1013.2
20260906000455 78 354 6.0 7.0 0.00 0.00 0.00 87 1013.4
20260905235954 78 350 5.0 6.0 0.00 0.00 0.00 88 1013.3
20260905235448 78 352 0.0 0.0 0.00 0.00 0.00 87 1012.8
20260905234943 78 350 0.0 0.0 0.00 0.00 0.00 87 1012.7
20260905234438 78 0 0.0 0.0 0.00 0.00 0.00 86 1012.7
20260905233933 78 339 0.0 0.0 0.00 0.00 0.00 86 1013.0
20260905233429 78 332 1.0 1.0 0.00 0.00 0.00 86 1013.0
20260905232927 79 332 0.0 0.0 0.00 0.00 0.00 85 1013.1
20260905232423 79 192 2.0 3.0 0.00 0.00 0.00 84 1013.1
20260905231918 79 342 2.0 3.0 0.00 0.00 0.00 84 1013.1
20260905231415 79 20 1.0 1.0 0.00 0.00 0.00 83 1013.3
20260905230911 80 254 3.0 3.0 0.00 0.00 0.00 83 1012.8
20260905230408 80 322 2.0 3.0 0.00 0.00 0.00 82 1013.1
20260905225901 80 199 3.0 3.0 0.00 0.00 0.00 81 1013.3
20260905225357 80 346 0.0 0.0 0.00 0.00 0.00 81 1013.1
20260905224852 80 248 2.0 2.0 0.00 0.00 0.00 80 1013.5
20260905224348 80 205 2.0 3.0 0.00 0.00 0.00 81 1013.3
20260905223842 81 316 1.0 1.0 0.00 0.00 0.00 81 1013.2
20260905223340 81 8 2.0 2.0 0.00 0.00 0.00 82 1012.8
20260905222840 81 323 2.0 2.0 0.00 0.00 0.00 82 1013.1
20260905222338 81 356 1.0 1.0 0.00 0.00 0.00 81 1013.1
20260905221835 82 355 1.0 1.0 0.00 0.00 0.00 80 1013.1
20260905221331 82 7 0.0 0.0 0.00 0.00 0.00 80 1013.0
20260905220827 82 42 1.0 2.0 0.00 0.00 0.00 80 1013.0
20260905220323 82 226 3.0 5.0 0.00 0.00 0.00 79 1012.8
20260905215822 82 317 2.0 3.0 0.00 0.00 0.00 78 1012.5
20260905215318 83 34 3.0 5.0 0.00 0.00 0.00 75 1012.8
20260905214814 83 259 2.0 2.0 0.00 0.00 0.00 77 1012.8
20260905214309 83 340 3.0 3.0 0.00 0.00 0.00 76 1012.5
20260905213805 84 207 3.0 3.0 0.00 0.00 0.00 77 1012.8
20260905213301 84 356 0.0 0.0 0.00 0.00 0.00 75 1012.6
20260905212801 85 8 5.0 6.0 0.00 0.00 0.00 74 1012.5
20260905212255 84 335 0.0 0.0 0.00 0.00 0.00 76 1012.5
20260905211755 85 44 2.0 3.0 0.00 0.00 0.00 73 1012.6
20260905211250 85 354 0.0 0.0 0.00 0.00 0.00 73 1012.8
20260905210747 85 355 3.0 3.0 0.00 0.00 0.00 73 1013.0
20260905210241 85 349 0.0 0.0 0.00 0.00 0.00 72 1012.5
20260905205739 85 3 2.0 2.0 0.00 0.00 0.00 72 1012.4
20260905205234 85 344 2.0 2.0 0.00 0.00 0.00 71 1012.5
20260905204728 86 340 0.0 0.0 0.00 0.00 0.00 70 1012.6
20260905204224 87 109 1.0 3.0 0.00 0.00 0.00 67 1012.6
20260905203724 90 160 2.0 5.0 0.00 0.00 0.00 63 1012.6
20260905203219 92 27 1.0 2.0 0.00 0.00 0.00 59 1012.7
20260905202715 91 341 0.0 1.0 0.00 0.00 0.00 60 1012.7
20260905202209 91 19 5.0 9.0 0.00 0.00 0.00 60 1012.6
20260905201705 92 323 1.0 3.0 0.00 0.00 0.00 59 1012.8
20260905201205 92 324 1.0 1.0 0.00 0.00 0.00 57 1012.4
20260905200700 94 355 5.0 7.0 0.00 0.00 0.00 55 1012.7
20260905200155 94 316 1.0 2.0 0.00 0.00 0.00 56 1012.6
20260905195653 93 25 3.0 3.0 0.00 0.00 0.00 56 1012.8
20260905195149 92 271 0.0 2.0 0.00 0.00 0.00 58 1012.7
20260905194644 92 333 2.0 2.0 0.00 0.00 0.00 57 1013.0
20260905194138 93 337 0.0 0.0 0.00 0.00 0.00 54 1013.1
20260905193633 93 329 1.0 3.0 0.00 0.00 0.00 55 1013.2
20260905193132 95 319 0.0 1.0 0.00 0.00 0.00 54 1013.3
20260905192628 94 342 1.0 1.0 0.00 0.00 0.00 52 1013.4
20260905192125 93 328 2.0 3.0 0.00 0.00 0.00 53 1013.4
20260905191624 92 308 4.0 5.0 0.00 0.00 0.00 54 1013.5
20260905191122 94 311 1.0 1.0 0.00 0.00 0.00 53 1013.6
20260905190621 93 324 2.0 3.0 0.00 0.00 0.00 53 1013.6
20260905190121 94 345 1.0 2.0 0.00 0.00 0.00 52 1014.1
20260905185619 93 324 4.0 6.0 0.00 0.00 0.00 52 1013.8
20260905185114 94 259 2.0 3.0 0.00 0.00 0.00 52 1014.0
20260905184608 94 331 4.0 6.0 0.00 0.00 0.00 53 1013.9
20260905184107 92 351 3.0 3.0 0.00 0.00 0.00 53 1014.0
20260905183606 93 242 4.0 6.0 0.00 0.00 0.00 54 1014.0
20260905183102 93 273 2.0 2.0 0.00 0.00 0.00 53 1014.1
20260905182601 92 227 5.0 7.0 0.00 0.00 0.00 54 1014.3
20260905182057 92 284 3.0 3.0 0.00 0.00 0.00 56 1014.3
20260905181556 91 249 3.0 5.0 0.00 0.00 0.00 56 1014.3
20260905181055 93 1 3.0 3.0 0.00 0.00 0.00 55 1014.2
20260905180550 94 234 1.0 2.0 0.00 0.00 0.00 54 1014.3
20260905180046 92 336 0.0 0.0 0.00 0.00 0.00 56 1014.2
20260905175545 91 277 1.0 1.0 0.00 0.00 0.00 56 1014.0
20260905175041 91 220 4.0 5.0 0.00 0.00 0.00 56 1014.2
20260905174536 91 295 3.0 3.0 0.00 0.00 0.00 55 1014.1
20260905174031 91 344 1.0 1.0 0.00 0.00 0.00 55 1014.1
20260905173528 92 350 0.0 0.0 0.00 0.00 0.00 54 1014.3
20260905173023 91 314 1.0 2.0 0.00 0.00 0.00 57 1014.2
20260905172521 90 256 2.0 2.0 0.00 0.00 0.00 56 1014.2
20260905172017 90 337 1.0 2.0 0.00 0.00 0.00 57 1014.4
20260905171513 89 340 1.0 1.0 0.00 0.00 0.00 56 1014.6
20260905171009 91 317 0.0 1.0 0.00 0.00 0.00 54 1014.5
20260905170506 91 319 0.0 0.0 0.00 0.00 0.00 55 1014.6
20260905170006 90 287 0.0 0.0 0.00 0.00 0.00 56 1014.9
20260905165501 89 304 1.0 1.0 0.00 0.00 0.00 57 1014.8
20260905164956 89 217 2.0 5.0 0.00 0.00 0.00 57 1014.9
20260905164455 89 242 3.0 5.0 0.00 0.00 0.00 58 1015.1
20260905163950 89 15 1.0 1.0 0.00 0.00 0.00 57 1015.2
20260905163447 89 353 3.0 5.0 0.00 0.00 0.00 56 1015.1
20260905162943 89 266 1.0 2.0 0.00 0.00 0.00 56 1015.1
20260905162438 88 348 0.0 0.0 0.00 0.00 0.00 62 1015.0
20260905161933 87 356 1.0 1.0 0.00 0.00 0.00 61 1015.0
20260905161432 87 318 0.0 1.0 0.00 0.00 0.00 59 1015.1
20260905160930 85 218 4.0 6.0 0.00 0.00 0.00 63 1015.3
20260905160424 86 133 3.0 3.0 0.00 0.00 0.00 62 1015.1
20260905155918 87 339 0.0 0.0 0.00 0.00 0.00 60 1014.9
20260905155418 86 343 0.0 0.0 0.00 0.00 0.00 59 1015.1
20260905154917 86 299 1.0 2.0 0.00 0.00 0.00 60 1015.1
20260905154413 84 334 0.0 0.0 0.00 0.00 0.00 64 1015.2
20260905153908 84 266 4.0 5.0 0.00 0.00 0.00 63 1014.8
20260905153404 84 326 1.0 1.0 0.00 0.00 0.00 62 1015.1
20260905152904 84 357 0.0 1.0 0.00 0.00 0.00 63 1015.4
20260905152403 82 281 3.0 3.0 0.00 0.00 0.00 65 1015.1
20260905151858 82 274 2.0 2.0 0.00 0.00 0.00 66 1015.2
20260905151355 82 246 4.0 6.0 0.00 0.00 0.00 66 1015.1
20260905150854 82 258 3.0 3.0 0.00 0.00 0.00 66 1014.9
20260905150349 82 215 4.0 5.0 0.00 0.00 0.00 68 1015.0
20260905145846 81 101 3.0 3.0 0.00 0.00 0.00 69 1015.1
20260905145340 81 328 3.0 3.0 0.00 0.00 0.00 68 1015.0
20260905144834 80 278 3.0 3.0 0.00 0.00 0.00 71 1015.2
20260905144330 80 144 4.0 6.0 0.00 0.00 0.00 71 1015.0
20260905143828 80 193 3.0 3.0 0.00 0.00 0.00 71 1014.9
20260905143323 80 180 4.0 5.0 0.00 0.00 0.00 73 1015.2
20260905142821 79 287 1.0 1.0 0.00 0.00 0.00 73 1015.2
20260905142316 79 359 0.0 0.0 0.00 0.00 0.00 73 1015.0
20260905141812 78 339 1.0 2.0 0.00 0.00 0.00 76 1015.3
20260905141307 78 334 1.0 2.0 0.00 0.00 0.00 74 1015.4
20260905140802 77 331 1.0 2.0 0.00 0.00 0.00 77 1015.4
20260905140256 76 86 3.0 5.0 0.00 0.00 0.00 78 1015.5
20260905135755 76 23 4.0 5.0 0.00 0.00 0.00 78 1016.2
20260905135252 76 303 3.0 3.0 0.00 0.00 0.00 79 1016.1
20260905134751 76 231 4.0 5.0 0.00 0.00 0.00 80 1016.2
20260905134245 75 325 0.0 0.0 0.00 0.00 0.00 78 1016.7
20260905133740 75 315 1.0 1.0 0.00 0.00 0.00 82 1016.8
20260905133235 74 285 1.0 1.0 0.00 0.00 0.00 82 1017.0
20260905132733 73 156 0.0 2.0 0.00 0.00 0.00 83 1017.0
20260905132224 73 244 2.0 2.0 0.00 0.00 0.00 84 1017.3
20260905131719 72 213 3.0 5.0 0.00 0.00 0.00 85 1017.4
20260905131214 72 313 1.0 1.0 0.00 0.00 0.00 87 1017.2
20260905130714 72 315 0.0 0.0 0.00 0.00 0.00 86 1017.7
20260905130208 71 342 2.0 2.0 0.00 0.00 0.00 86 1017.7
20260905125703 71 318 2.0 2.0 0.00 0.00 0.00 87 1017.2
20260905125158 71 233 4.0 5.0 0.00 0.00 0.00 87 1017.3
20260905124654 71 222 2.0 2.0 0.00 0.00 0.00 87 1017.6
20260905124150 71 237 2.0 2.0 0.00 0.00 0.00 86 1017.4
20260905123645 71 61 0.0 0.0 0.00 0.00 0.00 88 1017.2
20260905123142 72 322 0.0 0.0 0.00 0.00 0.00 88 1017.0
20260905122642 72 326 0.0 0.0 0.00 0.00 0.00 85 1017.2
20260905122137 71 350 0.0 0.0 0.00 0.00 0.00 85 1017.2
20260905121637 71 315 0.0 0.0 0.00 0.00 0.00 87 1017.0
20260905121133 71 48 2.0 3.0 0.00 0.00 0.00 86 1016.9
20260905120631 71 12 0.0 0.0 0.00 0.00 0.00 87 1016.7
20260905120126 71 348 0.0 0.0 0.00 0.00 0.00 87 1016.7
20260905115620 71 341 0.0 0.0 0.00 0.00 0.00 87 1016.6
20260905115115 70 353 2.0 2.0 0.00 0.00 0.00 87 1016.6
20260905114615 70 6 0.0 0.0 0.00 0.00 0.00 88 1016.5
20260905114113 70 345 2.0 2.0 0.00 0.00 0.00 89 1016.8
20260905113608 70 346 0.0 0.0 0.00 0.00 0.00 89 1016.9
20260905113103 70 356 2.0 2.0 0.00 0.00 0.00 89 1016.7
20260905112558 70 9 2.0 2.0 0.00 0.00 0.00 89 1016.6
20260905112054 70 333 4.0 6.0 0.00 0.00 0.00 88 1016.8
20260905111543 70 10 7.0 9.0 0.00 0.00 0.00 89 1017.1
20260905111042 70 358 2.0 2.0 0.00 0.00 0.00 89 1017.2
20260905110541 70 330 7.0 9.0 0.00 0.00 0.00 89 1017.2
20260905110036 70 20 3.0 5.0 0.00 0.00 0.00 88 1017.4
20260905105531 71 12 13.0 15.0 0.00 0.00 0.00 90 1017.4
20260905105029 71 358 11.0 13.0 0.00 0.00 0.00 92 1016.8
20260905104526 72 1 12.0 15.0 0.00 0.00 0.00 92 1016.7
20260905104020 72 352 11.0 15.0 0.00 0.00 0.00 95 1016.3
20260905103515 71 28 14.0 21.0 0.00 0.00 0.00 99 1015.6
20260905103012 71 243 7.0 10.0 0.00 0.00 0.00 99 1016.1
20260905102507 70 342 0.0 0.0 0.00 0.00 0.00 99 1014.5
20260905102003 70 345 0.0 0.0 0.00 0.00 0.00 99 1014.1
20260905101501 70 353 0.0 0.0 0.00 0.00 0.00 99 1014.1